[[{"header":{"parameterUnit":"m.s-1","parameterCategory":1,"la1":30.2991,"la2":30.254,"lo1":-89.0895,"lo2":-89.0444,"dy":0.0017,"dx":0.0017,"nx":28,"ny":28,"refTime":"2025-08-04T03:00:00:Z","depth":0,"parameterNumber":2,"parameterNumberName":"U-component_of_WINDS"},"data":[0,0,0,0,0,0,0,0,0,0,0,0,0,0,0,0,0,0,0,0,0,0,0,0,0,0,0,0,0,0,0,0,0,0,0,0,0,0,0,0,0,0,0,0,0,0,0,0,0,0,0,0,0,0,0,0,0,0,-3.3679,-3.3678,0,-3.3551,-3.355,-3.3549,-3.3401,-3.3398,-3.3396,-3.3394,-3.3261,-3.326,-3.3258,0,0,0,0,0,0,0,0,0,0,0,0,0,-3.3794,-3.3792,-3.368,-3.3678,-3.3676,-3.3552,-3.355,-3.3548,-3.3401,-3.3398,-3.3396,-3.3393,-3.3262,-3.326,-3.3258,0,0,0,0,0,0,0,0,0,0,0,0,0,-3.3713,-3.3792,-3.368,-3.3588,-3.3578,-3.3552,-3.355,-3.3548,-3.3402,-3.3398,-3.3395,-3.3392,-3.3262,-3.326,-3.3258,-3.3311,0,0,-3.3251,-3.325,0,0,0,0,0,0,0,0,-3.3718,-3.3709,-3.3603,-3.3594,-3.3583,-3.3489,-3.3541,-3.3468,-3.3402,-3.3469,-3.3394,-3.339,-3.3339,-3.3331,-3.3314,-3.3305,-3.3299,-3.3251,-3.3249,-3.3249,-3.3248,0,0,0,0,0,0,0,-3.3723,-3.3713,-3.3629,-3.3602,-3.359,-3.3552,-3.3537,-3.3527,-3.3424,-3.3463,-3.3452,-3.3439,-3.3333,-3.3316,-3.331,-3.3297,-3.3251,-3.3249,-3.3248,-3.3247,-3.3324,-3.3327,0,0,0,0,0,0,-3.3743,-3.3719,-3.3633,-3.3625,-3.3644,-3.3553,-3.3536,-3.3522,-3.3424,-3.3406,-3.3442,-3.3432,-3.3322,-3.3312,-3.3304,-3.3359,-3.3249,-3.3246,-3.3245,-3.332,-3.3324,-3.3328,0,0,0,0,0,0,-3.3746,-3.3737,-3.3638,-3.3669,-3.3653,-3.3554,-3.3541,-3.3522,-3.3504,-3.3408,-3.3389,-3.3443,-3.3319,-3.3307,-3.331,-3.3353,-3.3245,-3.3243,-3.3316,-3.3322,-3.3326,-3.3471,0,0,0,0,0,0,-3.375,-3.3739,-3.3759,-3.3671,-3.3652,-3.3647,-3.3543,-3.3522,-3.3501,-3.3488,-3.3404,-3.3387,-3.3315,-3.3314,-3.3308,-3.3348,-3.3242,-3.3312,-3.3319,-3.3325,-3.3462,-3.348,-3.3496,0,0,0,0,0,-3.3755,-3.3804,-3.3761,-3.3751,-3.3675,-3.365,-3.364,-3.3556,-3.3505,-3.3524,-3.3462,-3.339,-3.3349,-3.3316,-3.3308,-3.3347,-3.3309,-3.3317,-3.3324,-3.3454,-3.3476,-3.3495,0,0,0,0,0,0,-3.39,-3.3791,-3.3741,-3.3764,-3.3718,-3.3625,-3.3646,-3.3583,-3.3549,-3.3538,-3.3435,-3.3417,-3.3432,-3.3389,-3.3355,-3.3393,-3.3318,-3.3325,-3.342,-3.3441,-3.3457,-3.3467,-3.324,0,0,0,0,0,-3.3934,-3.3924,-3.3829,-3.3858,-3.3837,-3.3747,-3.3732,-3.3672,-3.3619,-3.3599,-3.3536,-3.3488,-3.3463,-3.3449,-3.3422,-3.3455,-3.3434,-3.3478,-3.3495,-3.3509,-3.3516,-3.3529,-3.3547,-3.3353,-3.3353,-3.3353,0,0,-3.4006,-3.3945,-3.3944,-3.3886,-3.3842,-3.3833,-3.3731,-3.3725,-3.3716,-3.3597,-3.3596,-3.3549,-3.3487,-3.3506,-3.351,-3.3471,-3.3565,-3.3519,-3.3531,-3.353,-3.3539,-3.3557,-3.3574,-3.3358,-3.3357,-3.3356,0,0,-3.4131,-3.4084,-3.4103,-3.4062,-3.3998,-3.3937,-3.3942,-3.3859,-3.3823,-3.3821,-3.3731,-3.3719,-3.368,-3.3639,-3.3614,-3.3723,-3.3655,-3.3717,-3.3806,-3.382,-3.3835,-3.3849,-3.3887,-3.3902,-3.3724,-3.3724,-3.3724,0,-3.4227,-3.421,-3.4121,-3.412,-3.4097,-3.3989,-3.4007,-3.3971,-3.3901,-3.3887,-3.3844,-3.3792,-3.3743,-3.3749,-3.3776,-3.3759,-3.3761,-3.3726,-3.3841,-3.3853,-3.3864,-3.3899,-3.3914,-3.3732,-3.3731,-3.373,-3.373,0,-3.4332,-3.4321,-3.4344,-3.428,-3.4258,-3.4268,-3.4179,-3.4168,-3.4109,-3.4053,-3.4051,-3.3988,-3.3946,-3.3943,-3.3886,-3.3942,-3.3919,-3.386,-3.3783,-3.3892,-3.3923,-3.3936,-3.3743,-3.374,-3.3738,-3.3736,0,0,-3.4545,-3.4431,-3.4441,-3.441,-3.4331,-3.4321,-3.4325,-3.4284,-3.4276,-3.4232,-3.4232,-3.4201,-3.4145,-3.4116,-3.4053,-3.4066,-3.4156,-3.4004,-3.4001,-3.4035,-3.4213,-3.4258,-3.4275,-3.4111,-3.4113,-3.4115,-3.4218,0,-3.4655,-3.4656,-3.4575,-3.4598,-3.4586,-3.4483,-3.4486,-3.4438,-3.4385,-3.4367,-3.4308,-3.4288,-3.4216,-3.4198,-3.4206,-3.4144,-3.419,-3.4135,-3.4109,-3.4109,-3.4128,-3.4292,-3.4339,-3.444,-3.423,-3.4232,-3.4233,0,-3.4785,-3.4748,-3.477,-3.469,-3.4682,-3.4686,-3.4642,-3.4626,-3.4569,-3.4529,-3.4497,-3.4426,-3.4422,-3.435,-3.4344,-3.4308,-3.4292,-3.426,-3.4262,-3.4256,-3.4178,-3.429,-3.447,-3.4485,-3.4252,-3.425,-3.4249,0,-3.4938,-3.4894,-3.4901,-3.4878,-3.4785,-3.479,-3.4751,-3.4691,-3.4671,-3.4632,-3.4618,-3.4579,-3.4558,-3.4529,-3.4449,-3.4404,-3.4451,-3.4373,-3.4418,-3.442,-3.4432,-3.4433,-3.4612,-3.4423,-3.4423,-3.4423,-3.4422,0,-3.507,-3.5087,-3.4968,-3.4973,-3.4989,-3.4895,-3.4913,-3.4864,-3.4811,-3.4804,-3.4712,-3.4707,-3.4601,-3.4583,-3.452,-3.4524,-3.4515,-3.4483,-3.4466,-3.4491,-3.4495,-3.4479,-3.447,-3.4427,-3.4426,-3.4425,-3.4424,0,-3.5243,-3.5165,-3.5166,-3.5077,-3.5055,-3.5071,-3.4995,-3.4995,-3.4936,-3.4928,-3.492,-3.4828,-3.4803,-3.472,-3.4673,-3.4631,-3.4654,-3.4621,-3.4674,-3.4663,-3.4713,-3.4709,-3.4888,-3.4906,-3.4707,-3.4709,-3.471,0,-3.5333,-3.5344,-3.5257,-3.5246,-3.5211,-3.5194,-3.5173,-3.5082,-3.5064,-3.4999,-3.5007,-3.4974,-3.4943,-3.4907,-3.4835,-3.4799,-3.4765,-3.483,-3.4759,-3.4784,-3.4766,-3.4766,-3.4766,-3.4846,-3.4848,-3.4851,-3.4852,0,-3.55,-3.546,-3.5435,-3.5396,-3.5374,-3.5339,-3.5298,-3.5294,-3.5191,-3.5176,-3.5149,-3.5125,-3.5078,-3.5046,-3.4998,-3.4957,-3.4888,-3.4875,-3.4884,-3.491,-3.4939,-3.4924,-3.4716,-3.4872,-3.487,-3.4868,-3.4867,-3.4866,-3.5634,-3.5639,-3.5578,-3.5553,-3.5512,-3.5476,-3.5472,-3.5413,-3.5389,-3.5344,-3.529,-3.527,-3.5211,-3.514,-3.5104,-3.5085,-3.5048,-3.506,-3.5063,-3.5068,-3.508,-3.4943,-3.5076,-3.5076,-3.5075,-3.5075,-3.5074,0,-3.5796,-3.5752,-3.5729,-3.5675,-3.5655,-3.5592,-3.5543,-3.5531,-3.5514,-3.5465,-3.5437,-3.5405,-3.5374,-3.53,-3.5262,-3.5261,-3.5229,-3.5254,-3.5253,-3.5245,-3.5116,-3.5112,-3.5282,-3.5282,-3.5282,-3.5281,-3.5281,-3.5281,-3.5878,-3.5883,-3.5836,-3.5819,-3.5774,-3.5754,-3.5732,-3.5698,-3.5658,-3.5628,-3.5602,-3.5554,-3.5494,-3.5451,-3.5419,-3.5398,-3.5388,-3.5424,-3.5393,-3.5274,-3.5254,-3.5235,-3.5231,-3.5423,-3.5423,-3.5523,-3.5524,-3.5525]},{"header":{"parameterUnit":"m.s-1","parameterCategory":1,"la1":30.2991,"la2":30.254,"lo1":-89.0895,"lo2":-89.0444,"dy":0.0017,"dx":0.0017,"nx":28,"ny":28,"refTime":"2025-08-04T03:00:00:Z","depth":0,"parameterNumber":3,"parameterNumberName":"V-component_of_WINDS"},"data":[0,0,0,0,0,0,0,0,0,0,0,0,0,0,0,0,0,0,0,0,0,0,0,0,0,0,0,0,0,0,0,0,0,0,0,0,0,0,0,0,0,0,0,0,0,0,0,0,0,0,0,0,0,0,0,0,0,0,-0.308,-0.3082,0,-0.3207,-0.3209,-0.321,-0.3198,-0.3196,-0.3194,-0.3192,-0.3332,-0.3337,-0.3343,0,0,0,0,0,0,0,0,0,0,0,0,0,-0.2835,-0.284,-0.308,-0.3082,-0.3083,-0.3207,-0.3209,-0.3211,-0.3199,-0.3196,-0.3194,-0.3191,-0.333,-0.3337,-0.3343,0,0,0,0,0,0,0,0,0,0,0,0,0,-0.295,-0.2841,-0.308,-0.3092,-0.3094,-0.3207,-0.3209,-0.3211,-0.3199,-0.3196,-0.3193,-0.319,-0.3328,-0.3336,-0.3344,-0.3456,0,0,-0.337,-0.3374,0,0,0,0,0,0,0,0,-0.2944,-0.2959,-0.3089,-0.3091,-0.3094,-0.3184,-0.3174,-0.3293,-0.32,-0.316,-0.3192,-0.3189,-0.3286,-0.3297,-0.3328,-0.3462,-0.3468,-0.3371,-0.3376,-0.3379,-0.3382,0,0,0,0,0,0,0,-0.2936,-0.2954,-0.3131,-0.309,-0.3094,-0.3094,-0.3107,-0.3196,-0.3238,-0.3163,-0.3162,-0.3177,-0.3287,-0.332,-0.3331,-0.347,-0.337,-0.3378,-0.3383,-0.3386,-0.3703,-0.3706,0,0,0,0,0,0,-0.2924,-0.2947,-0.3127,-0.3134,-0.301,-0.3101,-0.3115,-0.3158,-0.3237,-0.3246,-0.3179,-0.3176,-0.3307,-0.3322,-0.3336,-0.3471,-0.3379,-0.3387,-0.3392,-0.3699,-0.3703,-0.3707,0,0,0,0,0,0,-0.2918,-0.294,-0.3122,-0.3041,-0.3064,-0.3108,-0.3156,-0.3162,-0.3195,-0.3249,-0.3258,-0.3205,-0.3305,-0.3324,-0.3425,-0.3476,-0.3391,-0.3398,-0.3695,-0.3701,-0.3705,-0.3743,0,0,0,0,0,0,-0.2911,-0.2938,-0.2979,-0.3041,-0.3068,-0.3206,-0.3159,-0.3167,-0.3209,-0.3205,-0.3276,-0.3285,-0.3305,-0.3413,-0.3434,-0.3486,-0.3405,-0.3691,-0.3698,-0.3704,-0.3738,-0.3749,-0.3759,0,0,0,0,0,-0.2903,-0.2986,-0.2981,-0.3003,-0.3119,-0.3209,-0.3225,-0.3243,-0.3213,-0.3255,-0.329,-0.3283,-0.3467,-0.3423,-0.3447,-0.3502,-0.3688,-0.3696,-0.3703,-0.3733,-0.3747,-0.3758,0,0,0,0,0,0,-0.2932,-0.2995,-0.2989,-0.3095,-0.3146,-0.3207,-0.3261,-0.3257,-0.332,-0.3315,-0.3338,-0.3354,-0.3456,-0.349,-0.344,-0.3614,-0.3574,-0.3587,-0.3589,-0.3602,-0.3612,-0.3603,-0.3412,0,0,0,0,0,-0.295,-0.3015,-0.3068,-0.3156,-0.3182,-0.3217,-0.3257,-0.3266,-0.3321,-0.3344,-0.3386,-0.3443,-0.3513,-0.356,-0.3628,-0.3742,-0.3758,-0.3792,-0.3803,-0.3811,-0.3822,-0.3885,-0.3901,-0.3732,-0.3732,-0.3732,0,0,-0.299,-0.3032,-0.3072,-0.3163,-0.3204,-0.3273,-0.3236,-0.331,-0.3362,-0.3357,-0.3453,-0.3486,-0.3551,-0.3659,-0.3709,-0.369,-0.3872,-0.3821,-0.3827,-0.3834,-0.3895,-0.3911,-0.3925,-0.3737,-0.3736,-0.3736,0,0,-0.3097,-0.3135,-0.3212,-0.3253,-0.3314,-0.3337,-0.3355,-0.3416,-0.3437,-0.3533,-0.353,-0.3594,-0.3715,-0.3761,-0.3801,-0.3924,-0.392,-0.3946,-0.4001,-0.4062,-0.4076,-0.4087,-0.4132,-0.4147,-0.3956,-0.3956,-0.3957,0,-0.3139,-0.3239,-0.3254,-0.3328,-0.3369,-0.3363,-0.3443,-0.3483,-0.3565,-0.3594,-0.3571,-0.3722,-0.3766,-0.3884,-0.3914,-0.3946,-0.397,-0.3938,-0.4072,-0.4084,-0.4096,-0.4138,-0.4155,-0.3959,-0.3959,-0.3959,-0.3958,0,-0.3288,-0.3358,-0.3414,-0.3489,-0.3536,-0.3613,-0.3642,-0.3688,-0.3693,-0.3719,-0.3819,-0.387,-0.3948,-0.3977,-0.3985,-0.4097,-0.4084,-0.4066,-0.4026,-0.4114,-0.4154,-0.4171,-0.3963,-0.3962,-0.3961,-0.3961,0,0,-0.3418,-0.3498,-0.3518,-0.3552,-0.3618,-0.3674,-0.3752,-0.3825,-0.3865,-0.3921,-0.3988,-0.409,-0.4074,-0.4118,-0.4131,-0.4185,-0.4279,-0.4161,-0.4163,-0.4181,-0.4407,-0.442,-0.4438,-0.4276,-0.4279,-0.4282,-0.4402,0,-0.3531,-0.3665,-0.368,-0.38,-0.3865,-0.3861,-0.3929,-0.3978,-0.4005,-0.4066,-0.4097,-0.4168,-0.4141,-0.4168,-0.4221,-0.4256,-0.4325,-0.4248,-0.4341,-0.4344,-0.4325,-0.4459,-0.4473,-0.4584,-0.4418,-0.442,-0.4422,0,-0.3681,-0.3738,-0.3864,-0.392,-0.3949,-0.4009,-0.4077,-0.4135,-0.4192,-0.4207,-0.4256,-0.4261,-0.4344,-0.43,-0.4415,-0.4362,-0.4401,-0.4424,-0.4429,-0.4439,-0.4389,-0.4473,-0.4619,-0.4636,-0.4447,-0.4445,-0.4443,0,-0.3763,-0.3872,-0.3961,-0.399,-0.4058,-0.4101,-0.4132,-0.4185,-0.4228,-0.4289,-0.4317,-0.4387,-0.4427,-0.4482,-0.4507,-0.4473,-0.4621,-0.4579,-0.4638,-0.4638,-0.467,-0.4668,-0.4825,-0.4695,-0.4695,-0.4694,-0.4694,0,-0.3888,-0.3966,-0.3998,-0.4053,-0.414,-0.4157,-0.4244,-0.4274,-0.4321,-0.4384,-0.4386,-0.4445,-0.4474,-0.4539,-0.4559,-0.4652,-0.467,-0.4686,-0.4691,-0.4686,-0.4684,-0.4712,-0.4705,-0.4699,-0.4698,-0.4697,-0.4696,0,-0.3994,-0.4019,-0.4116,-0.4171,-0.4187,-0.4249,-0.4298,-0.4353,-0.4378,-0.4457,-0.4477,-0.4517,-0.4593,-0.4623,-0.4717,-0.4731,-0.4837,-0.4836,-0.4817,-0.4819,-0.4876,-0.487,-0.5057,-0.5083,-0.4935,-0.4937,-0.4938,0,-0.4073,-0.4131,-0.4192,-0.4232,-0.4264,-0.4329,-0.4372,-0.4392,-0.4437,-0.4506,-0.4552,-0.4627,-0.4688,-0.481,-0.485,-0.4922,-0.4922,-0.4983,-0.4933,-0.4927,-0.4924,-0.492,-0.4926,-0.4992,-0.4994,-0.4995,-0.4996,0,-0.4209,-0.4218,-0.4277,-0.4342,-0.4392,-0.4444,-0.4496,-0.453,-0.4558,-0.4609,-0.4684,-0.4731,-0.4825,-0.49,-0.4974,-0.5009,-0.5009,-0.5011,-0.5028,-0.5025,-0.5011,-0.5019,-0.4842,-0.5007,-0.5006,-0.5005,-0.5004,-0.5004,-0.4304,-0.4355,-0.4406,-0.4473,-0.4513,-0.456,-0.4614,-0.4644,-0.4706,-0.4782,-0.4791,-0.4873,-0.4929,-0.5027,-0.5065,-0.5131,-0.5116,-0.5141,-0.5148,-0.5154,-0.5158,-0.5,-0.5145,-0.5145,-0.5144,-0.5144,-0.5144,0,-0.444,-0.4472,-0.4533,-0.4602,-0.4656,-0.4646,-0.4703,-0.4748,-0.4819,-0.487,-0.4928,-0.5016,-0.5088,-0.5133,-0.5206,-0.5251,-0.5252,-0.5269,-0.5267,-0.5275,-0.5167,-0.5144,-0.5267,-0.5267,-0.5267,-0.5267,-0.5267,-0.5267,-0.4517,-0.4604,-0.4619,-0.4726,-0.4759,-0.4836,-0.4869,-0.4913,-0.4954,-0.505,-0.5109,-0.5136,-0.5185,-0.5262,-0.5329,-0.534,-0.5368,-0.5386,-0.5397,-0.5295,-0.5283,-0.5271,-0.5249,-0.5392,-0.5392,-0.5499,-0.55,-0.5501]}]]